Time,TemperatureF,DewpointF,PressureIn,WindDirection,WindDirectionDegrees,WindSpeedMPH,WindSpeedGustMPH,Humidity,HourlyPrecipIn,Conditions,Clouds,dailyrainin,SolarRadiationWatts/m^2,SoftwareType,DateUTC
2013-06-12 00:02:00,61.0,59.0,29.90,South,185,1.0,5.0,93,0.00,,,0.00,0.000000,,2013-06-12 07:02:00,
2013-06-12 00:12:00,61.0,59.0,29.90,SSE,150,3.0,6.0,93,0.00,,,0.00,0.000000,,2013-06-12 07:12:00,
2013-06-12 00:22:00,60.0,58.0,29.90,SW,217,2.0,7.0,94,0.00,,,0.00,0.000000,,2013-06-12 07:22:00,
2013-06-12 00:33:00,60.0,58.0,29.90,SW,217,2.0,7.0,94,0.00,,,0.00,0.000000,,2013-06-12 07:33:00,
2013-06-12 00:43:00,60.0,58.0,29.90,SSW,203,1.0,4.0,94,0.00,,,0.00,0.000000,,2013-06-12 07:43:00,
2013-06-12 00:53:00,60.0,58.0,29.90,SSW,203,1.0,4.0,94,0.00,,,0.00,0.000000,,2013-06-12 07:53:00,
2013-06-12 01:02:00,60.0,58.0,29.90,ESE,123,3.0,4.0,94,0.00,,,0.00,0.000000,,2013-06-12 08:02:00,
2013-06-12 01:12:00,60.0,58.0,29.90,SE,131,1.0,3.0,94,0.00,,,0.00,0.000000,,2013-06-12 08:12:00,
2013-06-12 01:22:00,60.0,58.0,29.90,SE,131,1.0,3.0,94,0.00,,,0.00,0.000000,,2013-06-12 08:22:00,
2013-06-12 01:33:00,60.0,59.0,29.90,SE,137,1.0,3.0,95,0.00,,,0.00,0.000000,,2013-06-12 08:33:00,
2013-06-12 01:43:00,60.0,59.0,29.89,SE,137,0.0,1.0,95,0.00,,,0.00,0.000000,,2013-06-12 08:43:00,
2013-06-12 01:52:00,60.0,59.0,29.89,SE,137,0.0,1.0,95,0.00,,,0.00,0.000000,,2013-06-12 08:52:00,
2013-06-12 02:01:00,60.0,59.0,29.89,SE,137,0.0,2.0,95,0.00,,,0.00,0.000000,,2013-06-12 09:01:00,
2013-06-12 02:11:00,60.0,59.0,29.89,WSW,251,0.0,1.0,95,0.00,,,0.00,0.000000,,2013-06-12 09:11:00,
2013-06-12 02:22:00,60.0,59.0,29.88,West,281,0.0,1.0,95,0.00,,,0.00,0.000000,,2013-06-12 09:22:00,
2013-06-12 02:33:00,60.0,59.0,29.88,West,281,0.0,1.0,95,0.00,,,0.00,0.000000,,2013-06-12 09:33:00,
2013-06-12 02:42:00,60.0,59.0,29.88,SE,137,0.0,2.0,95,0.00,,,0.00,0.000000,,2013-06-12 09:42:00,
2013-06-12 02:53:00,60.0,59.0,29.88,SE,137,0.0,2.0,95,0.00,,,0.00,0.000000,,2013-06-12 09:53:00,
2013-06-12 03:01:00,60.0,59.0,29.89,ENE,67,0.0,2.0,95,0.00,,,0.00,0.000000,,2013-06-12 10:01:00,
2013-06-12 03:11:00,60.0,59.0,29.88,ESE,112,0.0,2.0,95,0.00,,,0.00,0.000000,,2013-06-12 10:11:00,
2013-06-12 03:22:00,60.0,59.0,29.88,ESE,112,0.0,2.0,95,0.00,,,0.00,0.000000,,2013-06-12 10:22:00,
2013-06-12 03:33:00,60.0,59.0,29.88,WSW,238,1.0,3.0,95,0.00,,,0.00,0.000000,,2013-06-12 10:33:00,
2013-06-12 03:43:00,60.0,59.0,29.88,WSW,238,1.0,3.0,95,0.00,,,0.00,0.000000,,2013-06-12 10:43:00,
2013-06-12 03:53:00,60.0,59.0,29.88,WSW,238,1.0,3.0,95,0.00,,,0.00,0.000000,,2013-06-12 10:53:00,
2013-06-12 04:01:00,60.0,59.0,29.88,WSW,238,1.0,3.0,95,0.00,,,0.00,0.000000,,2013-06-12 11:01:00,
2013-06-12 06:12:00,60.0,59.0,29.91,South,178,0.0,2.0,96,0.00,,,0.00,0.000000,,2013-06-12 13:12:00,
2013-06-12 06:22:00,60.0,59.0,29.91,South,178,2.0,4.0,96,0.00,,,0.00,0.000000,,2013-06-12 13:22:00,
2013-06-12 06:32:00,60.0,59.0,29.91,South,178,0.0,2.0,96,0.00,,,0.00,0.000000,,2013-06-12 13:32:00,
2013-06-12 06:43:00,60.0,59.0,29.92,SSW,193,0.0,3.0,96,0.00,,,0.00,7.000000,,2013-06-12 13:43:00,
2013-06-12 06:53:00,60.0,59.0,29.92,SSW,193,0.0,3.0,96,0.00,,,0.00,7.000000,,2013-06-12 13:53:00,
2013-06-12 07:01:00,60.0,59.0,29.92,South,184,0.0,4.0,96,0.00,,,0.00,11.000000,,2013-06-12 14:01:00,
2013-06-12 07:11:00,60.0,59.0,29.92,South,184,1.0,3.0,97,0.00,,,0.00,19.000000,,2013-06-12 14:11:00,
2013-06-12 07:23:00,60.0,59.0,29.92,South,184,1.0,3.0,97,0.00,,,0.00,19.000000,,2013-06-12 14:23:00,
2013-06-12 07:33:00,60.0,59.0,29.92,SE,135,1.0,4.0,96,0.00,,,0.00,25.000000,,2013-06-12 14:33:00,
2013-06-12 07:43:00,60.0,59.0,29.92,SE,145,1.0,4.0,97,0.00,,,0.00,32.000000,,2013-06-12 14:43:00,
2013-06-12 07:53:00,60.0,59.0,29.92,SE,145,1.0,4.0,97,0.00,,,0.00,32.000000,,2013-06-12 14:53:00,
2013-06-12 08:01:00,60.0,59.0,29.92,SE,131,2.0,4.0,96,0.00,,,0.00,49.000000,,2013-06-12 15:01:00,
2013-06-12 08:11:00,60.0,59.0,29.92,SE,131,2.0,4.0,96,0.00,,,0.00,49.000000,,2013-06-12 15:11:00,
2013-06-12 08:23:00,60.0,59.0,29.93,South,181,2.0,7.0,96,0.00,,,0.00,69.000000,,2013-06-12 15:23:00,
2013-06-12 08:32:00,60.0,59.0,29.93,South,181,2.0,7.0,96,0.00,,,0.00,69.000000,,2013-06-12 15:32:00,
2013-06-12 08:43:00,60.0,59.0,29.93,South,181,2.0,7.0,96,0.00,,,0.00,69.000000,,2013-06-12 15:43:00,
2013-06-12 08:52:00,60.0,59.0,29.94,SSW,197,4.0,8.0,95,0.00,,,0.00,111.000000,,2013-06-12 15:52:00,
2013-06-12 09:01:00,60.0,59.0,29.94,SSW,197,4.0,8.0,95,0.00,,,0.00,111.000000,,2013-06-12 16:01:00,
2013-06-12 09:11:00,60.0,58.0,29.94,South,176,4.0,8.0,94,0.00,,,0.00,77.000000,,2013-06-12 16:11:00,
2013-06-12 09:21:00,60.0,58.0,29.94,South,176,4.0,8.0,94,0.00,,,0.00,77.000000,,2013-06-12 16:21:00,
2013-06-12 09:32:00,60.0,58.0,29.94,South,176,4.0,8.0,94,0.00,,,0.00,77.000000,,2013-06-12 16:32:00,
2013-06-12 09:43:00,61.0,59.0,29.95,SSW,207,2.0,8.0,93,0.00,,,0.00,125.000000,,2013-06-12 16:43:00,
2013-06-12 09:52:00,61.0,59.0,29.95,SW,236,3.0,6.0,93,0.00,,,0.00,127.000000,,2013-06-12 16:52:00,
2013-06-12 10:01:00,61.0,59.0,29.95,SW,236,3.0,6.0,93,0.00,,,0.00,127.000000,,2013-06-12 17:01:00,
2013-06-12 10:11:00,61.0,59.0,29.96,SSW,192,3.0,8.0,93,0.00,,,0.00,105.000000,,2013-06-12 17:11:00,
2013-06-12 10:22:00,61.0,59.0,29.96,SSW,199,4.0,8.0,93,0.00,,,0.00,53.000000,,2013-06-12 17:22:00,
2013-06-12 10:32:00,61.0,59.0,29.96,SSW,199,4.0,8.0,93,0.00,,,0.00,53.000000,,2013-06-12 17:32:00,
2013-06-12 10:42:00,61.0,59.0,29.96,SSW,199,4.0,8.0,93,0.00,,,0.00,53.000000,,2013-06-12 17:42:00,
2013-06-12 10:52:00,61.0,59.0,29.97,SSW,209,2.0,6.0,93,0.00,,,0.00,116.000000,,2013-06-12 17:52:00,
2013-06-12 11:02:00,61.0,59.0,29.97,SSW,209,2.0,6.0,93,0.00,,,0.00,116.000000,,2013-06-12 18:02:00,
2013-06-12 11:12:00,61.0,59.0,29.97,SW,229,3.0,6.0,92,0.00,,,0.00,144.000000,,2013-06-12 18:12:00,
2013-06-12 11:22:00,61.0,59.0,29.97,SW,229,3.0,6.0,92,0.00,,,0.00,144.000000,,2013-06-12 18:22:00,
2013-06-12 11:32:00,61.0,59.0,29.97,SW,229,3.0,6.0,92,0.00,,,0.00,144.000000,,2013-06-12 18:32:00,
2013-06-12 11:43:00,62.0,59.0,29.98,South,173,3.0,5.0,91,0.00,,,0.00,176.000000,,2013-06-12 18:43:00,
2013-06-12 11:53:00,62.0,59.0,29.98,South,173,3.0,5.0,91,0.00,,,0.00,176.000000,,2013-06-12 18:53:00,
2013-06-12 12:01:00,62.0,59.0,29.98,South,173,3.0,5.0,91,0.00,,,0.00,176.000000,,2013-06-12 19:01:00,
2013-06-12 12:11:00,63.0,60.0,29.98,ESE,109,2.0,5.0,89,0.00,,,0.00,230.000000,,2013-06-12 19:11:00,
2013-06-12 12:22:00,63.0,60.0,29.98,ESE,109,2.0,5.0,89,0.00,,,0.00,230.000000,,2013-06-12 19:22:00,
2013-06-12 12:32:00,63.0,60.0,29.98,ESE,109,2.0,5.0,89,0.00,,,0.00,230.000000,,2013-06-12 19:32:00,
2013-06-12 12:42:00,64.0,60.0,29.97,ESE,112,1.0,3.0,87,0.00,,,0.00,209.000000,,2013-06-12 19:42:00,
2013-06-12 12:52:00,64.0,60.0,29.97,ESE,112,1.0,3.0,87,0.00,,,0.00,209.000000,,2013-06-12 19:52:00,
2013-06-12 13:01:00,66.0,61.0,29.97,NW,306,3.0,5.0,83,0.00,,,0.00,221.000000,,2013-06-12 20:01:00,
2013-06-12 13:11:00,66.0,61.0,29.97,SW,235,2.0,5.0,84,0.00,,,0.00,192.000000,,2013-06-12 20:11:00,
2013-06-12 13:21:00,66.0,61.0,29.97,SW,235,2.0,5.0,84,0.00,,,0.00,192.000000,,2013-06-12 20:21:00,
2013-06-12 13:32:00,65.0,60.0,29.96,SW,231,2.0,5.0,84,0.00,,,0.00,246.000000,,2013-06-12 20:32:00,
2013-06-12 13:42:00,66.0,61.0,29.96,SW,231,3.0,8.0,83,0.00,,,0.00,267.000000,,2013-06-12 20:42:00,
2013-06-12 13:54:00,66.0,61.0,29.96,SW,231,3.0,8.0,83,0.00,,,0.00,267.000000,,2013-06-12 20:54:00,
2013-06-12 14:01:00,66.0,60.0,29.96,SW,231,3.0,6.0,82,0.00,,,0.00,193.000000,,2013-06-12 21:01:00,
2013-06-12 14:11:00,67.0,60.0,29.95,SW,221,3.0,8.0,79,0.00,,,0.00,742.000000,,2013-06-12 21:11:00,
2013-06-12 14:21:00,69.0,61.0,29.95,South,173,4.0,10.0,75,0.00,,,0.00,900.000000,,2013-06-12 21:21:00,
2013-06-12 14:33:00,69.0,61.0,29.95,South,173,4.0,10.0,75,0.00,,,0.00,900.000000,,2013-06-12 21:33:00,
2013-06-12 14:43:00,69.0,62.0,29.94,SSE,164,3.0,9.0,78,0.00,,,0.00,,,2013-06-12 21:43:00,
2013-06-12 14:52:00,70.0,62.0,29.94,South,179,4.0,9.0,75,0.00,,,0.00,926.000000,,2013-06-12 21:52:00,
2013-06-12 15:01:00,70.0,62.0,29.94,South,179,4.0,9.0,75,0.00,,,0.00,926.000000,,2013-06-12 22:01:00,
2013-06-12 15:11:00,71.0,62.0,29.93,SSW,211,5.0,10.0,74,0.00,,,0.00,921.000000,,2013-06-12 22:11:00,
2013-06-12 15:22:00,71.0,62.0,29.93,SSW,211,5.0,10.0,74,0.00,,,0.00,921.000000,,2013-06-12 22:22:00,
2013-06-12 15:32:00,71.0,62.0,29.93,SSW,211,5.0,10.0,74,0.00,,,0.00,921.000000,,2013-06-12 22:32:00,
2013-06-12 15:43:00,68.0,61.0,29.93,SW,217,7.0,13.0,77,0.00,,,0.00,926.000000,,2013-06-12 22:43:00,
2013-06-12 15:52:00,68.0,61.0,29.93,SW,217,7.0,13.0,77,0.00,,,0.00,926.000000,,2013-06-12 22:52:00,
2013-06-12 16:01:00,69.0,61.0,29.93,WSW,257,5.0,10.0,76,0.00,,,0.00,740.000000,,2013-06-12 23:01:00,
2013-06-12 16:11:00,70.0,61.0,29.93,SW,234,5.0,9.0,74,0.00,,,0.00,707.000000,,2013-06-12 23:11:00,
2013-06-12 16:22:00,70.0,61.0,29.93,SW,234,5.0,9.0,74,0.00,,,0.00,707.000000,,2013-06-12 23:22:00,
2013-06-12 16:32:00,68.0,60.0,29.93,SW,222,4.0,10.0,76,0.00,,,0.00,357.000000,,2013-06-12 23:32:00,
2013-06-12 16:42:00,67.0,60.0,29.92,South,177,5.0,12.0,79,0.00,,,0.00,621.000000,,2013-06-12 23:42:00,
2013-06-12 16:52:00,66.0,60.0,29.92,South,187,6.0,12.0,81,0.00,,,0.00,547.000000,,2013-06-12 23:52:00,
2013-06-12 17:01:00,66.0,60.0,29.92,South,187,6.0,12.0,81,0.00,,,0.00,547.000000,,2013-06-13 00:01:00,
2013-06-12 17:11:00,66.0,60.0,29.92,South,174,5.0,12.0,81,0.00,,,0.00,125.000000,,2013-06-13 00:11:00,
2013-06-12 17:22:00,66.0,60.0,29.92,SW,235,6.0,9.0,82,0.00,,,0.00,510.000000,,2013-06-13 00:22:00,
2013-06-12 17:32:00,66.0,60.0,29.92,SW,235,6.0,9.0,82,0.00,,,0.00,510.000000,,2013-06-13 00:32:00,
2013-06-12 17:42:00,65.0,59.0,29.92,SW,217,3.0,8.0,82,0.00,,,0.00,171.000000,,2013-06-13 00:42:00,
2013-06-12 17:52:00,65.0,59.0,29.92,SW,217,3.0,8.0,82,0.00,,,0.00,171.000000,,2013-06-13 00:52:00,
2013-06-12 18:01:00,65.0,59.0,29.92,SW,217,3.0,8.0,82,0.00,,,0.00,171.000000,,2013-06-13 01:01:00,
2013-06-12 18:11:00,65.0,59.0,29.92,SSW,203,5.0,9.0,82,0.00,,,0.00,127.000000,,2013-06-13 01:11:00,
2013-06-12 18:22:00,65.0,59.0,29.92,SSW,203,5.0,9.0,82,0.00,,,0.00,127.000000,,2013-06-13 01:22:00,
2013-06-12 18:32:00,65.0,59.0,29.92,SSW,203,5.0,9.0,82,0.00,,,0.00,127.000000,,2013-06-13 01:32:00,
2013-06-12 18:42:00,64.0,59.0,29.91,South,186,2.0,7.0,84,0.00,,,0.00,104.000000,,2013-06-13 01:42:00,
2013-06-12 18:52:00,64.0,59.0,29.91,South,186,2.0,7.0,84,0.00,,,0.00,104.000000,,2013-06-13 01:52:00,
2013-06-12 19:01:00,63.0,58.0,29.91,SSW,201,2.0,7.0,85,0.00,,,0.00,67.000000,,2013-06-13 02:01:00,
2013-06-12 19:11:00,64.0,59.0,29.92,SW,223,3.0,7.0,84,0.00,,,0.00,62.000000,,2013-06-13 02:11:00,
2013-06-12 19:22:00,64.0,59.0,29.92,SW,232,3.0,8.0,84,0.00,,,0.00,39.000000,,2013-06-13 02:22:00,
2013-06-12 19:32:00,64.0,59.0,29.92,SW,232,3.0,8.0,84,0.00,,,0.00,39.000000,,2013-06-13 02:32:00,
2013-06-12 19:42:00,63.0,58.0,29.92,SW,236,2.0,8.0,85,0.00,,,0.00,19.000000,,2013-06-13 02:42:00,
2013-06-12 19:52:00,63.0,59.0,29.92,WSW,256,2.0,6.0,86,0.00,,,0.00,7.000000,,2013-06-13 02:52:00,
2013-06-12 20:01:00,63.0,59.0,29.92,WSW,256,2.0,6.0,86,0.00,,,0.00,7.000000,,2013-06-13 03:01:00,
2013-06-12 20:11:00,63.0,58.0,29.93,West,265,2.0,6.0,85,0.00,,,0.00,0.000000,,2013-06-13 03:11:00,
2013-06-12 20:22:00,63.0,59.0,29.93,West,276,2.0,6.0,86,0.00,,,0.00,0.000000,,2013-06-13 03:22:00,
2013-06-12 20:33:00,63.0,59.0,29.93,West,276,2.0,6.0,86,0.00,,,0.00,0.000000,,2013-06-13 03:33:00,
2013-06-12 20:42:00,63.0,58.0,29.93,WSW,240,2.0,5.0,85,0.00,,,0.00,0.000000,,2013-06-13 03:42:00,
2013-06-12 20:52:00,62.0,58.0,29.93,WSW,239,1.0,6.0,86,0.00,,,0.00,0.000000,,2013-06-13 03:52:00,
2013-06-12 21:01:00,62.0,58.0,29.93,WSW,239,1.0,6.0,86,0.00,,,0.00,0.000000,,2013-06-13 04:01:00,
2013-06-12 21:11:00,63.0,59.0,29.93,West,267,2.0,5.0,86,0.00,,,0.00,0.000000,,2013-06-13 04:11:00,
2013-06-12 21:22:00,63.0,59.0,29.93,West,267,2.0,5.0,86,0.00,,,0.00,0.000000,,2013-06-13 04:22:00,
2013-06-12 21:32:00,62.0,58.0,29.94,WSW,240,2.0,5.0,86,0.00,,,0.00,0.000000,,2013-06-13 04:32:00,
2013-06-12 21:43:00,62.0,58.0,29.94,WSW,246,1.0,4.0,87,0.00,,,0.00,0.000000,,2013-06-13 04:43:00,
2013-06-12 21:53:00,62.0,58.0,29.94,SW,236,1.0,4.0,87,0.00,,,0.00,0.000000,,2013-06-13 04:53:00,
2013-06-12 22:01:00,62.0,58.0,29.94,SW,236,1.0,4.0,87,0.00,,,0.00,0.000000,,2013-06-13 05:01:00,
2013-06-12 22:11:00,62.0,58.0,29.94,SW,236,1.0,4.0,87,0.00,,,0.00,0.000000,,2013-06-13 05:11:00,
2013-06-12 22:23:00,62.0,58.0,29.94,SW,236,1.0,4.0,87,0.00,,,0.00,0.000000,,2013-06-13 05:23:00,
2013-06-12 22:32:00,62.0,58.0,29.95,WSW,240,0.0,3.0,87,0.00,,,0.00,0.000000,,2013-06-13 05:32:00,
2013-06-12 22:43:00,62.0,58.0,29.95,WSW,238,1.0,3.0,87,0.00,,,0.00,0.000000,,2013-06-13 05:43:00,
2013-06-12 22:53:00,62.0,58.0,29.95,WSW,238,1.0,3.0,87,0.00,,,0.00,0.000000,,2013-06-13 05:53:00,
2013-06-12 23:02:00,62.0,58.0,29.95,WSW,248,1.0,3.0,87,0.00,,,0.00,0.000000,,2013-06-13 06:02:00,
2013-06-12 23:11:00,62.0,58.0,29.94,WSW,248,0.0,2.0,88,0.00,,,0.00,0.000000,,2013-06-13 06:11:00,
2013-06-12 23:21:00,62.0,58.0,29.94,WSW,248,0.0,2.0,88,0.00,,,0.00,0.000000,,2013-06-13 06:21:00,
2013-06-12 23:33:00,62.0,58.0,29.94,WSW,248,0.0,2.0,88,0.00,,,0.00,0.000000,,2013-06-13 06:33:00,
2013-06-12 23:44:00,62.0,58.0,29.94,WSW,248,0.0,2.0,88,0.00,,,0.00,0.000000,,2013-06-13 06:44:00,
2013-06-12 23:52:00,62.0,58.0,29.94,WSW,248,0.0,2.0,88,0.00,,,0.00,0.000000,,2013-06-13 06:52:00,